This is the latest recevied weather packets stored in our database for station/object WK7G. If no packets are shown the sender has not sent any weather packets the latest 10 day(s).
| Time | Temp. | Humidity | Pressure | Rain* | Wind** | Luminosity | Snow |
|---|---|---|---|---|---|---|---|
| 1778120329 | 11.67° C | 44% | 1010.1 hPa | 0 mm | - | 5 W/m² | - |
| 1778120025 | 12.22° C | 44% | 1009.9 hPa | 0 mm | - | 8 W/m² | - |
| 1778119723 | 12.22° C | 44% | 1009.7 hPa | 0 mm | - | 18 W/m² | - |
| 1778119419 | 12.78° C | 43% | 1009.9 hPa | 0 mm | - | 20 W/m² | - |
| 1778119116 | 12.78° C | 42% | 1010.3 hPa | 0 mm | - | 20 W/m² | - |
| 1778118815 | 12.78° C | 43% | 1010.1 hPa | 0 mm | - | 40 W/m² | - |
| 1778118511 | 12.78° C | 42% | 1009.9 hPa | 0 mm | - | 43 W/m² | - |
| 1778118207 | 12.78° C | 42% | 1010.1 hPa | 0 mm | - | 38 W/m² | - |
| 1778117904 | 12.22° C | 41% | 1010.1 hPa | 0 mm | - | 33 W/m² | - |
| 1778117601 | 12.78° C | 42% | 1010.3 hPa | 0 mm | - | 39 W/m² | - |
| 1778117299 | 13.33° C | 41% | 1010.4 hPa | 0 mm | - | 53 W/m² | - |
| 1778116995 | 13.33° C | 40% | 1010.3 hPa | 0 mm | - | 69 W/m² | - |
| 1778116692 | 13.33° C | 41% | 1010.1 hPa | 0 mm | - | 98 W/m² | - |
| 1778116388 | 13.89° C | 39% | 1010 hPa | 0 mm | - | 74 W/m² | - |
| 1778116088 | 13.89° C | 41% | 1010.1 hPa | 0 mm | - | 151 W/m² | - |
| 1778115784 | 13.33° C | 41% | 1010.1 hPa | 0 mm | - | 171 W/m² | - |
| 1778115482 | 13.33° C | 40% | 1010.5 hPa | 0 mm | - | 183 W/m² | - |
| 1778115178 | 13.89° C | 40% | 1010.5 hPa | 0 mm | - | 111 W/m² | - |
| 1778114875 | 13.89° C | 39% | 1010.5 hPa | 0 mm | - | 120 W/m² | - |
| 1778114572 | 13.89° C | 40% | 1010.4 hPa | 0 mm | - | 242 W/m² | - |
| 1778114268 | 13.89° C | 40% | 1010.3 hPa | 0 mm | - | 276 W/m² | - |
| 1778113964 | 13.89° C | 39% | 1010.6 hPa | 0 mm | - | 309 W/m² | - |
| 1778113660 | 13.33° C | 39% | 1010.5 hPa | 0 mm | - | 310 W/m² | - |
| 1778113356 | 12.22° C | 41% | 1010.6 hPa | 0 mm | - | 235 W/m² | - |
| 1778113053 | 12.22° C | 40% | 1010.6 hPa | 0 mm | - | 125 W/m² | - |
* Rain latest hour (hover to see other rain measurements)
** Current wind speed in m/s (hover to see current wind gust speed)